Cedar Rapids, IA

4:39 PM CST on December 06, 2019 (GMT -0600)
The Eastern Iowa Airport

Weather History for KCID - August, 2019

Change the Weather History Date:

Thursday, August 29, 2019

  Actual Average Record
Temperature  
Mean Temperature 68 °F 69 °F  
Max Temperature 83 °F 80 °F 97 °F (1925)
Min Temperature 52 °F 58 °F 38 °F (1934)
Degree Days  
Heating Degree Days 0 1  
Month to date heating degree days 2 10  
Since 1 June heating degree days 13 43  
Since 1 July heating degree days 2 14  
Cooling Degree Days 3 5  
Month to date cooling degree days 150 190  
Year to date cooling degree days 652 657  
Since 1 June cooling degree days 624 608  
Growing Degree Days 18 (Base 50)    
Moisture  
Dew Point 60 °F    
Average Humidity 80    
Maximum Humidity 100    
Minimum Humidity 60    
Precipitation  
Precipitation T in 0.13 in 1.30 in (1907)
Month to date precipitation 5.19 4.20  
Year to date precipitation 27.78 25.02  
Sea Level Pressure  
Sea Level Pressure 29.92 in    
Wind  
Wind Speed 10 mph (WSW)    
Max Wind Speed 23 mph    
Max Gust Speed 31 mph    
Visibility 10 miles    
Events      
T = Trace of Precipitation, MM = Missing Value Source: NWS Daily Summary

Daily Weather History Graph

Daily Weather History Graph

Search for Another Location

Airport or City:

Astronomy

Aug. 29, 2019 Rise Set
Actual Time 6:29 AM CDT 7:45 PM CDT
Civil Twilight 6:00 AM CDT 8:14 PM CDT
Nautical Twilight 5:25 AM CDT 8:48 PM CDT
Astronomical Twilight 4:49 AM CDT 9:25 PM CDT
Moon 5:12 AM CDT (8/29) 7:43 PM CDT (8/29)
Length of Visible Light 14h 13m
Length of Day
13h 16m
Waning Crescent, 1% of the Moon is Illuminated
Aug 29
Waning Crescent
Aug 30
New
Sep 5
First Quarter
Sep 13
Full
Sep 21
Last Quarter

Hourly Weather History & Observations

Time (CDT) Temp. Heat Index Dew Point Humidity Pressure Visibility Wind Dir Wind Speed Gust Speed Precip Events Conditions
12:52 AM 54.0 °F - 53.1 °F 97% 29.97 in 10.0 mi South 4.6 mph - N/A   Clear
1:52 AM 54.0 °F - 53.1 °F 97% 29.97 in 10.0 mi Calm Calm - N/A   Unknown
2:52 AM 54.0 °F - 53.1 °F 97% 29.97 in 10.0 mi SSE 3.5 mph - N/A   Partly Cloudy
3:52 AM 55.0 °F - 54.0 °F 96% 29.95 in 10.0 mi SSE 3.5 mph - N/A   Unknown
4:52 AM 55.9 °F - 55.0 °F 97% 29.94 in 10.0 mi SSE 4.6 mph - N/A   Scattered Clouds
5:52 AM 55.0 °F - 54.0 °F 96% 29.93 in 10.0 mi SSE 5.8 mph - N/A   Scattered Clouds
6:52 AM 57.0 °F - 55.9 °F 96% 29.92 in 10.0 mi South 5.8 mph - N/A   Scattered Clouds
7:52 AM 62.1 °F - 61.0 °F 96% 29.91 in 10.0 mi SSW 10.4 mph - N/A   Partly Cloudy
8:52 AM 69.1 °F - 63.0 °F 81% 29.90 in 10.0 mi SSW 11.5 mph 23.0 mph N/A   Clear
9:52 AM 69.1 °F - 64.0 °F 84% 29.90 in 10.0 mi SW 11.5 mph - 0.00 in   Mostly Cloudy
10:52 AM 73.9 °F - 64.9 °F 73% 29.86 in 10.0 mi SW 13.8 mph - N/A   Clear
11:52 AM 75.0 °F - 64.9 °F 71% 29.86 in 10.0 mi SW 21.9 mph 29.9 mph N/A   Scattered Clouds
12:52 PM 78.1 °F - 66.9 °F 68% 29.87 in 10.0 mi WSW 16.1 mph 24.2 mph N/A   Clear
1:52 PM 80.1 °F 83.2 °F 70.0 °F 71% 29.86 in 10.0 mi WSW 17.3 mph 26.5 mph N/A   Scattered Clouds
2:52 PM 80.1 °F 83.2 °F 70.0 °F 71% 29.87 in 10.0 mi WSW 17.3 mph 27.6 mph N/A   Scattered Clouds
3:52 PM 82.0 °F 86.3 °F 71.1 °F 69% 29.87 in 10.0 mi West 15.0 mph 24.2 mph N/A   Partly Cloudy
4:52 PM 82.9 °F 88.0 °F 72.0 °F 69% 29.86 in 10.0 mi West 10.4 mph - N/A   Clear
5:52 PM 81.0 °F 83.0 °F 66.0 °F 60% 29.87 in 10.0 mi NW 12.7 mph - N/A   Clear
6:52 PM 75.9 °F - 60.1 °F 58% 29.90 in 10.0 mi NW 8.1 mph - N/A   Clear
7:52 PM 70.0 °F - 57.0 °F 63% 29.94 in 10.0 mi NW 10.4 mph - N/A   Clear
8:52 PM 66.0 °F - 53.1 °F 63% 29.96 in 10.0 mi NW 9.2 mph - N/A   Clear
9:52 PM 61.0 °F - 53.1 °F 75% 29.99 in 10.0 mi WNW 8.1 mph - N/A   Clear
10:52 PM 63.0 °F - 53.1 °F 70% 30.04 in 10.0 mi NW 9.2 mph - N/A   Clear
11:52 PM 62.1 °F - 54.0 °F 75% 30.02 in 10.0 mi NNW 10.4 mph - N/A   Clear